Погода в Бетьках

Россия / Республика Татарстан     55°31′03″N   50°10′58″E
темп.,
°C
ветер,
м/с
пор.,
м/с
влажн.,
%
обл.,
%
осадки,
мм/ч
давл.,
гПа
погр.,
м
29 июня, ср
ср2900:00+7с478071 0.0 1018147
03:00+7с59849 0.0 1019325
06:00+8с597798 0.0 1019439
09:00+13ссз576417 0.0 10191038
12:00+16ссз67555 0.0 10181669
15:00+17ссз57545 0.0 10171851
18:00+16с36681 0.0 1016544
21:00+12сз34735 0.0 101668
30 июня, чт
чт3000:00+10сз35805 0.0 101574
03:00+10сз4678100 0.0 1014120
06:00+13сз487626 0.0 1013270
09:00+16сз4663100 0.0 1011723
12:00+18сз565293 0.0 10111990
15:00+17сз476097 0.1 1010882
18:00+11сз478797 1.2 1011470
21:00+9с511925 1.3 1012369
1 июля, пт
пт100:00+7с6129517 0.0 1012336
03:00+7ссз61195100 0.1 1012362
06:00+7с71396100 3.5 1011637
09:00+10ссв71297100 4.9 1012725
12:00+12св7119096 3.6 1013741
15:00+15св8107897 4.1 10131196
18:00+15св7127711 0.3 10131100
21:00+11ссв612840 0.3 1015267
2 июля, сб
сб200:00+10ссв512855 0.0 1014213
03:00+9ссв510855 0.0 1015169
06:00+12ссв510785 0.0 1015261
09:00+17ссв576147 0.0 1014748
12:00+19св56555 0.0 10131377
15:00+20с4658100 0.0 10131664
18:00+17с3876100 0.0 1012202
21:00+16ссв3675100 0.0 1013120
3 июля, вс
вс300:00+16ссв357322 0.0 101382
03:00+15ссв3673100 0.0 1013124
06:00+15с368199 0.0 1014176
09:00+21ссв35655 0.0 1014627
12:00+23с45558 0.0 10141504
15:00+23с56595 0.0 10151710
18:00+21ссз3575100 0.1 1015122
21:00+18ссз348053 0.1 101645